Date String (YYYY-MM-DD hh:mm:ss) UTC,Instrument flags,Ambient pressure (hPa),Sample flow (lpm),Bypass flow (lpm),Sample temperature (°C),Ambient temperature (°C),ASC tube jacket temperature (°C),LED temperature (°C),Box temperature (°C),Sample RH (%),Span deviation,Mass concentration (μg/m³),Mass concentration (μg/m³),Mass concentration (μg/m³)
DateTimeUTC,F1_M11,P_M11,Q1_M11,Q2_M11,T1_M11,T2_M11,T3_M11,T4_M11,T5_M11,U1_M11,ZSPAN_M11,X2_M11,X0_M11,X1_M11
2023-05-28 05:00:00,,0830.4,5.01,0.00,30.0,28.5,00.0,38.3,31.6,24.2,0000.0,0003.34,0009.31,0002.29
2023-05-28 05:01:00,,0830.5,5.01,0.00,30.0,28.5,00.0,38.3,31.6,24.1,0000.0,0003.35,0009.54,0002.32
2023-05-28 05:02:00,,0830.5,4.99,0.00,30.0,28.5,00.0,38.3,31.6,24.3,0000.0,0003.39,0009.64,0002.35
2023-05-28 05:03:00,,0830.4,4.99,0.00,30.0,28.5,00.0,38.3,31.7,24.5,0000.0,0003.39,0009.23,0002.39
2023-05-28 05:04:00,,0830.5,5.00,0.00,30.0,28.5,00.0,38.3,31.7,24.6,0000.0,0003.40,0008.70,0002.42
2023-05-28 05:05:00,,0830.4,5.00,0.00,30.0,28.5,00.0,38.3,31.7,24.2,0000.0,0003.44,0008.20,0002.45
2023-05-28 05:06:00,,0830.5,5.00,0.00,30.0,28.5,00.0,38.3,31.7,23.8,0000.0,0003.50,0008.31,0002.50
2023-05-28 05:07:00,,0830.5,5.01,0.00,30.1,28.5,00.0,38.4,31.7,24.0,0000.0,0003.50,0008.03,0002.55
2023-05-28 05:08:00,,0830.5,5.00,0.00,30.1,28.5,00.0,38.4,31.7,24.1,0000.0,0003.52,0008.07,0002.59
2023-05-28 05:09:00,,0830.7,4.99,0.00,30.1,28.5,00.0,38.4,31.7,23.9,0000.0,0003.56,0008.19,0002.65
2023-05-28 05:10:00,,0830.6,5.01,0.00,30.1,28.5,00.0,38.4,31.7,23.7,0000.0,0003.64,0008.34,0002.73
2023-05-28 05:11:00,,0830.6,5.00,0.00,30.1,28.5,00.0,38.4,31.7,23.7,0000.0,0003.69,0007.77,0002.79
2023-05-28 05:12:00,,0830.7,4.99,0.00,30.1,28.5,00.0,38.4,31.7,23.6,0000.0,0003.72,0007.64,0002.84
2023-05-28 05:13:00,,0830.5,5.00,0.00,30.1,28.6,00.0,38.4,31.7,23.7,0000.0,0003.72,0007.63,0002.90
2023-05-28 05:14:00,,0830.6,5.00,0.00,30.1,28.6,00.0,38.4,31.7,23.8,0000.0,0003.76,0007.68,0002.94
2023-05-28 05:15:00,,0830.7,5.00,0.00,30.1,28.6,00.0,38.4,31.7,23.8,0000.0,0003.79,0007.71,0002.96
2023-05-28 05:16:00,,0830.5,5.00,0.00,30.1,28.6,00.0,38.4,31.7,23.6,0000.0,0003.81,0007.82,0003.01
2023-05-28 05:17:00,,0830.5,5.01,0.00,30.1,28.6,00.0,38.4,31.7,23.6,0000.0,0003.81,0008.41,0003.02
2023-05-28 05:18:00,,0830.5,5.00,0.00,30.1,28.6,00.0,38.4,31.7,23.7,0000.0,0003.88,0008.82,0003.06
2023-05-28 05:19:00,,0830.5,4.99,0.00,30.1,28.6,00.0,38.5,31.7,23.8,0000.0,0003.92,0008.86,0003.09
2023-05-28 05:20:00,,0830.5,5.00,0.00,30.1,28.6,00.0,38.5,31.7,23.7,0000.0,0003.96,0008.97,0003.11
2023-05-28 05:21:00,,0830.5,4.98,0.00,30.1,28.6,00.0,38.5,31.7,23.7,0000.0,0003.99,0009.29,0003.11
2023-05-28 05:22:00,,0830.6,4.99,0.00,30.1,28.6,00.0,38.5,31.7,23.8,0000.0,0004.02,0009.50,0003.12
2023-05-28 05:23:00,,0830.7,5.00,0.00,30.1,28.5,00.0,38.5,31.7,23.9,0000.0,0004.04,0009.80,0003.13
2023-05-28 05:24:00,,0830.5,5.00,0.00,30.1,28.5,00.0,38.5,31.7,24.0,0000.0,0004.04,0009.96,0003.13
2023-05-28 05:25:00,,0830.4,5.01,0.00,30.1,28.5,00.0,38.5,31.7,24.0,0000.0,0004.02,0009.85,0003.12
2023-05-28 05:26:00,,0830.4,5.00,0.00,30.1,28.5,00.0,38.5,31.7,23.9,0000.0,0004.05,0009.91,0003.14
2023-05-28 05:27:00,,0830.4,5.00,0.00,30.1,28.5,00.0,38.5,31.7,24.0,0000.0,0004.07,0010.49,0003.15
2023-05-28 05:28:00,,0830.4,5.00,0.00,30.1,28.5,00.0,38.5,31.7,24.0,0000.0,0004.08,0009.88,0003.15
2023-05-28 05:29:00,,0830.4,5.00,0.00,30.1,28.5,00.0,38.5,31.7,23.7,0000.0,0004.10,0010.27,0003.15
2023-05-28 05:30:00,,0830.4,4.99,0.00,30.1,28.5,00.0,38.5,31.7,23.7,0000.0,0004.08,0010.36,0003.14
2023-05-28 05:31:00,,0830.6,4.99,0.00,30.1,28.5,00.0,38.5,31.7,23.6,0000.0,0004.07,0010.35,0003.13
2023-05-28 05:32:00,,0830.4,5.00,0.00,30.1,28.5,00.0,38.5,31.7,23.8,0000.0,0004.03,0009.91,0003.12
2023-05-28 05:33:00,,0830.4,5.00,0.00,30.1,28.5,00.0,38.5,31.7,23.8,0000.0,0004.02,0009.96,0003.12
2023-05-28 05:34:00,,0830.6,5.00,0.00,30.1,28.4,00.0,38.5,31.7,24.0,0000.0,0004.00,0009.76,0003.11
2023-05-28 05:35:00,,0830.5,5.00,0.00,30.1,28.5,00.0,38.5,31.7,24.0,0000.0,0004.00,0009.51,0003.12
2023-05-28 05:36:00,,0830.5,5.01,0.00,30.1,28.5,00.0,38.5,31.7,23.9,0000.0,0004.07,0009.68,0003.13
2023-05-28 05:37:00,,0830.5,5.01,0.00,30.1,28.5,00.0,38.5,31.7,23.9,0000.0,0004.06,0009.69,0003.13
2023-05-28 05:38:00,,0830.6,5.00,0.00,30.1,28.5,00.0,38.5,31.7,24.0,0000.0,0004.05,0009.17,0003.13
2023-05-28 05:39:00,,0830.7,4.99,0.00,30.1,28.5,00.0,38.5,31.7,24.0,0000.0,0004.09,0009.22,0003.14
2023-05-28 05:40:00,,0830.7,5.00,0.00,30.1,28.5,00.0,38.5,31.7,24.1,0000.0,0004.09,0008.82,0003.15
2023-05-28 05:41:00,,0830.6,5.00,0.00,30.1,28.5,00.0,38.5,31.7,24.2,0000.0,0004.09,0009.15,0003.15
2023-05-28 05:42:00,,0830.6,5.00,0.00,30.1,28.5,00.0,38.5,31.7,24.1,0000.0,0004.11,0009.32,0003.17
2023-05-28 05:43:00,,0830.6,5.00,0.00,30.1,28.5,00.0,38.5,31.7,24.3,0000.0,0004.16,0009.43,0003.20
2023-05-28 05:44:00,,0830.6,4.99,0.00,30.1,28.5,00.0,38.5,31.7,24.4,0000.0,0004.15,0009.61,0003.21
2023-05-28 05:45:00,,0830.5,5.00,0.00,30.1,28.5,00.0,38.5,31.7,24.4,0000.0,0004.13,0009.67,0003.21
2023-05-28 05:46:00,,0830.6,5.00,0.00,30.1,28.5,00.0,38.5,31.7,24.5,0000.0,0004.15,0009.69,0003.22
2023-05-28 05:47:00,,0830.6,5.00,0.00,30.1,28.5,00.0,38.5,31.7,24.4,0000.0,0004.13,0009.56,0003.24
2023-05-28 05:48:00,,0830.6,5.00,0.00,30.1,28.5,00.0,38.5,31.7,24.4,0000.0,0004.12,0009.50,0003.24
2023-05-28 05:49:00,,0830.5,5.00,0.00,30.1,28.5,00.0,38.5,31.7,24.3,0000.0,0004.11,0009.51,0003.24
2023-05-28 05:50:00,,0830.5,5.00,0.00,30.1,28.6,00.0,38.5,31.7,24.0,0000.0,0004.12,0009.51,0003.24
2023-05-28 05:51:00,,0830.6,5.00,0.00,30.1,28.5,00.0,38.5,31.7,24.0,0000.0,0004.11,0009.47,0003.24
2023-05-28 05:52:00,,0830.6,5.00,0.00,30.1,28.5,00.0,38.5,31.7,24.1,0002.2,0004.10,0008.82,0003.23
2023-05-28 05:53:00,,0830.6,5.00,0.00,30.2,28.5,00.0,38.5,31.7,24.1,0002.6,0004.08,0008.63,0003.23
2023-05-28 05:54:00,,0830.7,5.00,0.00,30.2,28.5,00.0,38.5,31.7,24.2,0002.5,0004.09,0008.86,0003.20
2023-05-28 05:55:00,,0830.7,4.99,0.00,30.1,28.5,00.0,38.5,31.7,24.2,0002.8,0004.08,0008.53,0003.20
2023-05-28 05:56:00,,0830.6,5.00,0.00,30.2,28.5,00.0,38.5,31.7,24.2,0003.6,0004.11,0008.19,0003.20
2023-05-28 05:57:00,,0830.6,5.00,0.00,30.2,28.6,00.0,38.5,31.7,24.2,0003.5,0004.11,0008.43,0003.19
2023-05-28 05:58:00,,0830.7,5.00,0.00,30.2,28.5,00.0,38.5,31.7,24.2,0003.8,0004.09,0008.61,0003.19
2023-05-28 05:59:00,,0830.6,5.01,0.00,30.2,28.5,00.0,38.5,31.7,24.3,0003.5,0004.11,0008.73,0003.20
